Seattle Boeing, WA
on Monday, January 7, 2013

Monday
Previous Day Next Day
Daily Summary
 ActualAverage (KSEA)Record (KSEA)
Temperature
Mean Temperature °F 41°F  
Max Temperature 52°F 46°F 59°F (2002)
Min Temperature 41°F 37°F 19°F (1973)
Degree Days
Heating Degree Days 18 24  
Month to date heating degree days 168  
Since 1 July heating degree days 2106  
Cooling Degree Days 0 0  
Month to date cooling degree days 0  
Year to date cooling degree days 0  
Moisture
Dew Point 43°F   
Average Humidity 79    
Maximum Humidity 93    
Minimum Humidity 71    
Precipitation
Precipitation 0.02 in 0.19 in 2.29 in (2009)
Month to date precipitation 1.30  
Year to date precipitation 1.30  
Snow
Snow 0.00 in in 2.70 in (1980)
Month to date snowfall  
Since 1 July snowfall  
Snow Depth in   
Wind
Wind Speed 11 mph   
Max Wind Speed 22 mph   
Max Gust Speed 37 mph   
Visibility 10 miles   
Events Rain   

Key: T is trace of precipitation, MM is missing value
Source: NWS Daily Summary
Time(PST)TemperatureDew PointHumidity Pressure Visibility Wind DirectionWind SpeedGust SpeedPrecipitationEvents Conditions
12:53 AM 41.0°F 39.0°F 93% 29.97 in 10.0 miles SE 5.8 mph - 0.01 in   Overcast
1:53 AM 43.0°F 39.0°F 86% 29.96 in 10.0 miles ESE 5.8 mph - N/A   Overcast
2:53 AM 42.1°F 39.0°F 89% 29.93 in 10.0 miles SE 8.1 mph - N/A   Overcast
3:53 AM 43.0°F 39.9°F 89% 29.90 in 10.0 miles SE 8.1 mph - N/A   Overcast
4:53 AM 44.1°F 39.9°F 85% 29.86 in 10.0 miles SE 10.4 mph - N/A   Overcast
5:53 AM 46.0°F 41.0°F 83% 29.84 in 10.0 miles South 11.5 mph 16.1 mph 0.00 in Rain Light Rain
6:53 AM 48.0°F 43.0°F 83% 29.84 in 10.0 miles South 11.5 mph - 0.01 in   Overcast
7:53 AM 48.9°F 43.0°F 80% 29.82 in 10.0 miles South 12.7 mph - N/A   Overcast
8:53 AM 50.0°F 44.1°F 80% 29.84 in 10.0 miles South 21.9 mph 29.9 mph N/A   Overcast
9:53 AM 50.0°F 46.0°F 86% 29.86 in 10.0 miles South 17.3 mph 23.0 mph N/A   Overcast
10:10 AM 51.8°F 46.4°F 82% 29.86 in 10.0 miles South 16.1 mph 27.6 mph N/A   Overcast
10:53 AM 52.0°F 46.0°F 80% 29.89 in 10.0 miles South 18.4 mph 29.9 mph N/A   Overcast
11:00 AM 51.8°F 46.4°F 82% 29.89 in 10.0 miles South 18.4 mph 33.4 mph N/A   Overcast
11:53 AM 52.0°F 46.0°F 80% 29.89 in 10.0 miles South 18.4 mph 28.8 mph N/A   Overcast
11:58 AM 51.8°F 46.4°F 82% 29.89 in 10.0 miles South 19.6 mph 32.2 mph N/A   Overcast
12:53 PM 52.0°F 45.0°F 77% 29.91 in 10.0 miles South 19.6 mph 36.8 mph N/A   Overcast
1:53 PM 52.0°F 45.0°F 77% 29.94 in 10.0 miles South 17.3 mph 36.8 mph N/A   Overcast
2:39 PM 51.8°F 44.6°F 76% 29.95 in 10.0 miles SSW 15.0 mph 27.6 mph N/A   Scattered Clouds
2:53 PM 51.1°F 44.1°F 77% 29.96 in 10.0 miles South 12.7 mph 21.9 mph N/A   Mostly Cloudy
3:00 PM 51.8°F 44.6°F 76% 29.97 in 10.0 miles SSW 13.8 mph 27.6 mph N/A   Scattered Clouds
3:16 PM 51.8°F 44.6°F 76% 29.99 in 10.0 miles SSW 15.0 mph 23.0 mph N/A   Mostly Cloudy
3:53 PM 51.1°F 43.0°F 74% 30.01 in 10.0 miles South 10.4 mph 24.2 mph N/A   Overcast
4:53 PM 50.0°F 43.0°F 77% 30.04 in 10.0 miles South 6.9 mph - N/A   Overcast
5:53 PM 50.0°F 43.0°F 77% 30.06 in 10.0 miles South 6.9 mph - N/A   Overcast
6:53 PM 50.0°F 42.1°F 74% 30.08 in 10.0 miles South 6.9 mph - N/A   Overcast
7:53 PM 48.9°F 39.9°F 71% 30.09 in 10.0 miles South 10.4 mph - N/A   Overcast
8:18 PM 48.2°F 39.2°F 71% 30.10 in 10.0 miles South 11.5 mph - N/A   Overcast
8:53 PM 48.0°F 39.9°F 74% 30.12 in 10.0 miles SSE 13.8 mph 20.7 mph N/A   Partly Cloudy
9:53 PM 48.0°F 39.0°F 71% 30.14 in 10.0 miles South 12.7 mph 19.6 mph N/A   Mostly Cloudy
10:53 PM 48.0°F 39.0°F 71% 30.14 in 10.0 miles South 9.2 mph - N/A   Overcast
11:10 PM 48.2°F 39.2°F 71% 30.16 in 10.0 miles South 9.2 mph - N/A   Overcast
11:53 PM 48.0°F 39.9°F 74% 30.15 in 10.0 miles South 9.2 mph - N/A   Overcast
Moon Phase
Jan. 07 Jan. 11 Jan. 18 Jan. 26 Feb. 03
Sunrise:07:56 AM (PST) Moon Rise:03:21 AM (PST)1/7
Sunset:04:35 PM (PST) Moon Set:12:54 PM (PST)1/7

Copyright © 2014 The Weather Underground, Inc.